Wetterdaten: Jahr 2009
Datum Temp Feuchte Luftdruck Regen Wind Richtung Sonnenschein UV Solar Windben
01.01.2009 -4,0 C 96 % 1029,2 hPa 0,0 l/m 0,4 km/h W 0,00 h 0,0 UV-I 20 W/m 2,4 km/h
02.01.2009 -5,5 C 94 % 1029,5 hPa 0,0 l/m 1,3 km/h N-NO 0,00 h 0,0 UV-I 14 W/m 3,6 km/h
03.01.2009 -5,4 C 87 % 1026,2 hPa 0,0 l/m 4,1 km/h W 0,15 h 0,0 UV-I 40 W/m 9,6 km/h
04.01.2009 -1,5 C 97 % 1016,3 hPa 0,0 l/m 9,9 km/h W 0,00 h 0,0 UV-I 34 W/m 26,1 km/h
05.01.2009 -6,3 C 89 % 1022,6 hPa 0,0 l/m 4,6 km/h N-NO 0,42 h 0,0 UV-I 55 W/m 10,4 km/h
06.01.2009 -12,5 C 85 % 1025,1 hPa 0,8 l/m 0,8 km/h NO 4,08 h 0,0 UV-I 156 W/m 3,6 km/h
07.01.2009 -7,2 C 95 % 1024,4 hPa 0,8 l/m 0,9 km/h S 0,00 h 0,0 UV-I 23 W/m 3,2 km/h
08.01.2009 -8,8 C 92 % 1031,7 hPa 0,0 l/m 2,2 km/h S 3,25 h 0,0 UV-I 112 W/m 4,4 km/h
09.01.2009 -8,1 C 91 % 1031,4 hPa 1,8 l/m 0,2 km/h S 3,17 h 0,0 UV-I 119 W/m 2,4 km/h
10.01.2009 -5,2 C 64 % 1029,7 hPa 0,0 l/m 5,8 km/h S 3,58 h 0,6 UV-I 114 W/m 10,0 km/h
11.01.2009 -8,2 C 82 % 1031,1 hPa 0,0 l/m 5,8 km/h S-SO 4,08 h 0,6 UV-I 119 W/m 8,0 km/h
12.01.2009 -3,1 C 74 % 1021,8 hPa 0,0 l/m 13,1 km/h S 3,08 h 0,7 UV-I 111 W/m 21,4 km/h
13.01.2009 0,2 C 83 % 1014,6 hPa 0,2 l/m 7,7 km/h S 0,00 h 0,0 UV-I 42 W/m 11,3 km/h
14.01.2009 1,4 C 97 % 1015,8 hPa 6,0 l/m 2,3 km/h S 0,00 h 0,0 UV-I 31 W/m 5,2 km/h
15.01.2009 -0,5 C 94 % 1022,6 hPa 2,6 l/m 0,6 km/h S 1,08 h 0,6 UV-I 85 W/m 2,0 km/h
16.01.2009 -1,6 C 92 % 1022,0 hPa 0,0 l/m 17,0 km/h S-SO 1,67 h 0,6 UV-I 101 W/m 25,3 km/h
17.01.2009 1,6 C 94 % 1016,1 hPa 0,8 l/m 7,3 km/h S 0,75 h 0,5 UV-I 81 W/m 11,3 km/h
18.01.2009 2,6 C 92 % 1001,3 hPa 2,8 l/m 17,1 km/h S 0,00 h 0,5 UV-I 41 W/m 36,6 km/h
19.01.2009 2,6 C 93 % 991,4 hPa 0,4 l/m 24,3 km/h S-SO 0,33 h 0,0 UV-I 39 W/m 38,6 km/h
20.01.2009 0,3 C 90 % 998,9 hPa 0,8 l/m 4,6 km/h S 2,75 h 0,6 UV-I 107 W/m 8,8 km/h
21.01.2009 -1,0 C 90 % 1008,3 hPa 0,2 l/m 0,4 km/h S 2,83 h 0,5 UV-I 120 W/m 2,4 km/h
22.01.2009 1,1 C 88 % 998,8 hPa 1,0 l/m 23,0 km/h S-SO 1,58 h 0,5 UV-I 106 W/m 31,3 km/h
23.01.2009 1,5 C 94 % 974,6 hPa 14,6 l/m 15,3 km/h S-SO 0,00 h 0,0 UV-I 25 W/m 25,4 km/h
24.01.2009 2,1 C 95 % 990,8 hPa 1,2 l/m 4,3 km/h SW 0,00 h 0,5 UV-I 35 W/m 11,7 km/h
25.01.2009 0,4 C 90 % 1000,3 hPa 0,0 l/m 6,3 km/h S 5,33 h 0,6 UV-I 156 W/m 10,9 km/h
26.01.2009 -0,3 C 91 % 1005,5 hPa 0,2 l/m 4,9 km/h O-SO 5,33 h 0,6 UV-I 155 W/m 10,0 km/h
27.01.2009 -0,9 C 96 % 1016,1 hPa 0,0 l/m 2,2 km/h N-NO 0,00 h 0,0 UV-I 32 W/m 5,6 km/h
28.01.2009 -1,9 C 90 % 1020,7 hPa 0,0 l/m 2,6 km/h SO 4,60 h 0,7 UV-I 142 W/m 5,6 km/h
29.01.2009 -1,4 C 86 % 1023,9 hPa 0,0 l/m 15,5 km/h SO 4,08 h 0,7 UV-I 151 W/m 27,8 km/h
30.01.2009 -2,2 C 86 % 1025,0 hPa 0,0 l/m 9,4 km/h SO 7,00 h 0,7 UV-I 175 W/m 23,4 km/h
31.01.2009 -0,9 C 80 % 1021,0 hPa 0,0 l/m 6,0 km/h SO 0,00 h 0,5 UV-I 70 W/m 14,5 km/h
01.02.2009 -3,8 C 84 % 1012,3 hPa 0,2 l/m 6,3 km/h N-NO 0,67 h 0,0 UV-I 71 W/m 18,5 km/h
02.02.2009 0,5 C 87 % 1003,5 hPa 0,0 l/m 15,6 km/h SO 1,00 h 0,6 UV-I 105 W/m 32,2 km/h
03.02.2009 -0,3 C 91 % 999,8 hPa 0,0 l/m 3,3 km/h S 4,67 h 0,7 UV-I 149 W/m 5,6 km/h
04.02.2009 1,0 C 95 % 998,0 hPa 0,2 l/m 2,8 km/h S 0,00 h 0,0 UV-I 37 W/m 3,2 km/h
05.02.2009 2,8 C 92 % 995,9 hPa 0,0 l/m 11,4 km/h S 0,33 h 0,5 UV-I 60 W/m 17,3 km/h
06.02.2009 2,5 C 93 % 992,4 hPa 0,0 l/m 4,0 km/h S 4,50 h 0,7 UV-I 160 W/m 6,9 km/h
07.02.2009 1,1 C 97 % 990,7 hPa 4,2 l/m 2,9 km/h NW 0,00 h 0,0 UV-I 36 W/m 9,7 km/h
08.02.2009 0,0 C 94 % 1003,4 hPa 0,2 l/m 4,8 km/h S-SW 1,08 h 0,6 UV-I 101 W/m 15,3 km/h
09.02.2009 -0,2 C 94 % 1002,9 hPa 0,4 l/m 14,5 km/h S-SO 0,00 h 0,0 UV-I 31 W/m 19,7 km/h
10.02.2009 1,3 C 98 % 990,3 hPa 18,4 l/m 13,4 km/h S-SO 0,00 h 0,6 UV-I 55 W/m 28,9 km/h
11.02.2009 0,0 C 97 % 1010,5 hPa 1,4 l/m 6,9 km/h N-NW 0,68 h 0,8 UV-I 104 W/m 15,7 km/h
12.02.2009 -1,2 C 96 % 1017,5 hPa 1,4 l/m 3,7 km/h NW 0,83 h 0,7 UV-I 102 W/m 10,9 km/h
13.02.2009 -0,8 C 98 % 1017,6 hPa 1,6 l/m 1,5 km/h NW 0,00 h 0,6 UV-I 82 W/m 6,0 km/h
14.02.2009 -6,4 C 93 % 1027,2 hPa 0,2 l/m 0,0 km/h N 0,08 h 0,0 UV-I 30 W/m 0,0 km/h
15.02.2009 -2,2 C 95 % 1025,3 hPa 0,0 l/m 2,8 km/h SW 0,00 h 0,0 UV-I 40 W/m 7,3 km/h
16.02.2009 1,9 C 98 % 1018,5 hPa 21,4 l/m 5,3 km/h W 0,00 h 0,5 UV-I 35 W/m 13,3 km/h
17.02.2009 -2,8 C 90 % 1022,5 hPa 8,6 l/m 3,7 km/h N-NO 3,50 h 0,9 UV-I 159 W/m 7,6 km/h
18.02.2009 -5,1 C 81 % 1028,0 hPa 0,6 l/m 1,4 km/h S 6,67 h 1,0 UV-I 249 W/m 2,8 km/h
19.02.2009 -1,8 C 86 % 1026,1 hPa 0,2 l/m 4,9 km/h W-SW 5,00 h 1,0 UV-I 212 W/m 13,3 km/h
20.02.2009 1,7 C 98 % 1026,2 hPa 8,8 l/m 5,8 km/h NW 0,00 h 0,6 UV-I 51 W/m 12,5 km/h
21.02.2009 1,5 C 98 % 1029,2 hPa 3,8 l/m 4,2 km/h NW 0,00 h 0,7 UV-I 97 W/m 10,1 km/h
22.02.2009 3,3 C 99 % 1018,5 hPa 7,0 l/m 10,1 km/h W 0,00 h 0,6 UV-I 37 W/m 20,1 km/h
23.02.2009 2,3 C 98 % 1016,2 hPa 5,6 l/m 12,1 km/h N-NW 0,08 h 0,7 UV-I 60 W/m 25,4 km/h
24.02.2009 1,1 C 92 % 1026,3 hPa 0,0 l/m 3,8 km/h N-NW 1,83 h 0,9 UV-I 150 W/m 7,3 km/h
25.02.2009 3,2 C 91 % 1026,3 hPa 1,4 l/m 5,6 km/h SW 1,75 h 0,9 UV-I 143 W/m 14,9 km/h
26.02.2009 4,5 C 93 % 1016,2 hPa 4,4 l/m 18,5 km/h W 0,75 h 0,7 UV-I 107 W/m 35,4 km/h
27.02.2009 5,3 C 99 % 1016,3 hPa 13,6 l/m 11,7 km/h W-NW 0,00 h 0,0 UV-I 23 W/m 28,2 km/h
28.02.2009 6,6 C 99 % 1014,3 hPa 6,8 l/m 3,0 km/h W-SW 0,00 h 0,5 UV-I 37 W/m 6,8 km/h
01.03.2009 5,0 C 96 % 1009,5 hPa 0,2 l/m 9,3 km/h S-SO 0,00 h 0,6 UV-I 75 W/m 16,9 km/h
02.03.2009 4,7 C 97 % 1013,9 hPa 2,2 l/m 1,8 km/h S 0,00 h 0,0 UV-I 24 W/m 6,4 km/h
03.03.2009 3,9 C 82 % 1010,7 hPa 0,0 l/m 7,0 km/h S 3,42 h 1,1 UV-I 186 W/m 12,5 km/h
04.03.2009 5,5 C 76 % 991,3 hPa 0,2 l/m 15,3 km/h S-SO 2,08 h 0,9 UV-I 164 W/m 25,3 km/h
05.03.2009 3,3 C 95 % 988,1 hPa 1,0 l/m 3,8 km/h N-NW 0,33 h 0,6 UV-I 88 W/m 7,2 km/h
06.03.2009 2,8 C 98 % 997,6 hPa 8,8 l/m 6,7 km/h N-NW 0,00 h 0,0 UV-I 26 W/m 16,1 km/h
07.03.2009 1,9 C 91 % 1011,3 hPa 1,8 l/m 7,9 km/h NW 3,17 h 1,1 UV-I 177 W/m 16,1 km/h
08.03.2009 4,3 C 94 % 1002,8 hPa 3,8 l/m 7,8 km/h S 0,08 h 0,6 UV-I 55 W/m 13,3 km/h
09.03.2009 2,8 C 91 % 1008,3 hPa 4,8 l/m 14,3 km/h S-SW 0,83 h 0,7 UV-I 115 W/m 34,6 km/h
10.03.2009 3,0 C 96 % 1007,0 hPa 14,2 l/m 9,3 km/h S 0,00 h 0,6 UV-I 64 W/m 18,1 km/h
11.03.2009 3,6 C 90 % 1020,9 hPa 2,8 l/m 3,9 km/h NW 0,58 h 0,9 UV-I 114 W/m 10,5 km/h
12.03.2009 5,5 C 97 % 1017,4 hPa 11,2 l/m 12,1 km/h S 0,00 h 0,5 UV-I 35 W/m 28,1 km/h
13.03.2009 4,2 C 92 % 1020,5 hPa 0,0 l/m 5,5 km/h NW 3,23 h 1,1 UV-I 187 W/m 10,9 km/h
14.03.2009 7,3 C 90 % 1016,3 hPa 2,8 l/m 9,3 km/h S 3,98 h 1,2 UV-I 220 W/m 20,9 km/h
15.03.2009 5,5 C 97 % 1025,4 hPa 7,8 l/m 8,3 km/h NW 0,00 h 0,6 UV-I 56 W/m 18,1 km/h
16.03.2009 4,9 C 95 % 1032,9 hPa 0,2 l/m 0,5 km/h NW 0,00 h 0,6 UV-I 61 W/m 1,6 km/h
17.03.2009 5,4 C 78 % 1033,7 hPa 0,0 l/m 8,1 km/h N-NW 3,25 h 1,3 UV-I 192 W/m 18,1 km/h
18.03.2009 2,7 C 86 % 1030,9 hPa 0,0 l/m 2,3 km/h NW 7,17 h 1,4 UV-I 267 W/m 4,4 km/h
19.03.2009 1,2 C 84 % 1028,5 hPa 0,0 l/m 3,2 km/h N-NO 4,58 h 1,3 UV-I 256 W/m 7,7 km/h
20.03.2009 0,4 C 73 % 1032,1 hPa 0,0 l/m 1,7 km/h N-NO 8,58 h 1,5 UV-I 341 W/m 4,0 km/h
21.03.2009 3,9 C 64 % 1027,2 hPa 0,0 l/m 5,9 km/h W 8,92 h 1,7 UV-I 347 W/m 13,3 km/h
22.03.2009 5,1 C 81 % 1022,2 hPa 0,4 l/m 10,7 km/h N-NW 0,15 h 1,2 UV-I 107 W/m 27,8 km/h
23.03.2009 3,8 C 92 % 1004,1 hPa 9,0 l/m 14,3 km/h W 0,00 h 0,7 UV-I 49 W/m 32,6 km/h
24.03.2009 0,3 C 84 % 1008,0 hPa 2,8 l/m 8,0 km/h N-NW 2,25 h 1,1 UV-I 178 W/m 17,3 km/h
25.03.2009 1,4 C 96 % 999,3 hPa 9,6 l/m 6,5 km/h S 0,00 h 0,7 UV-I 85 W/m 14,1 km/h
26.03.2009 4,9 C 93 % 1001,3 hPa 7,2 l/m 17,7 km/h S 0,00 h 0,6 UV-I 65 W/m 30,5 km/h
27.03.2009 4,8 C 87 % 998,5 hPa 7,4 l/m 6,7 km/h S 2,58 h 1,2 UV-I 201 W/m 12,9 km/h
28.03.2009 4,8 C 88 % 997,8 hPa 1,4 l/m 14,4 km/h S 0,42 h 0,8 UV-I 94 W/m 25,0 km/h
29.03.2009 3,3 C 93 % 1010,4 hPa 2,6 l/m 1,2 km/h NW 1,17 h 1,1 UV-I 154 W/m 5,2 km/h
30.03.2009 3,0 C 83 % 1022,1 hPa 0,0 l/m 0,5 km/h S 8,00 h 1,7 UV-I 365 W/m 2,8 km/h
31.03.2009 5,2 C 72 % 1023,8 hPa 0,0 l/m 1,0 km/h S 9,92 h 2,0 UV-I 390 W/m 2,8 km/h
01.04.2009 8,6 C 71 % 1021,7 hPa 0,0 l/m 4,7 km/h N-NO 9,83 h 2,0 UV-I 382 W/m 11,7 km/h
02.04.2009 10,9 C 70 % 1019,0 hPa 0,0 l/m 5,7 km/h O-NO 9,92 h 2,1 UV-I 382 W/m 13,3 km/h
03.04.2009 13,0 C 70 % 1015,8 hPa 0,0 l/m 3,4 km/h S-SO 10,00 h 2,3 UV-I 394 W/m 8,8 km/h
04.04.2009 12,0 C 82 % 1019,1 hPa 0,0 l/m 6,2 km/h NW 6,00 h 1,7 UV-I 247 W/m 13,7 km/h
05.04.2009 7,3 C 91 % 1022,7 hPa 0,0 l/m 0,8 km/h N-NO 1,08 h 0,9 UV-I 116 W/m 2,4 km/h
06.04.2009 12,0 C 77 % 1014,2 hPa 0,0 l/m 6,9 km/h SO 9,92 h 2,0 UV-I 362 W/m 13,3 km/h
07.04.2009 13,3 C 79 % 1009,6 hPa 3,8 l/m 5,3 km/h S-SO 7,17 h 2,1 UV-I 322 W/m 8,4 km/h
08.04.2009 11,7 C 69 % 1012,8 hPa 0,8 l/m 8,1 km/h S 2,92 h 1,8 UV-I 238 W/m 14,9 km/h
09.04.2009 11,0 C 87 % 1015,3 hPa 2,0 l/m 1,3 km/h S 6,08 h 2,0 UV-I 331 W/m 2,0 km/h
10.04.2009 15,9 C 67 % 1009,3 hPa 0,0 l/m 7,0 km/h SO 10,92 h 2,3 UV-I 403 W/m 15,7 km/h
11.04.2009 16,3 C 67 % 1008,4 hPa 0,0 l/m 4,0 km/h SO 9,92 h 2,2 UV-I 373 W/m 9,7 km/h
12.04.2009 15,9 C 64 % 1009,4 hPa 0,0 l/m 3,5 km/h SO 10,67 h 2,2 UV-I 375 W/m 9,6 km/h
13.04.2009 13,3 C 81 % 1008,2 hPa 0,0 l/m 1,7 km/h S 10,00 h 1,9 UV-I 381 W/m 4,0 km/h
14.04.2009 14,3 C 69 % 1009,3 hPa 0,0 l/m 2,1 km/h N-NO 8,00 h 2,3 UV-I 365 W/m 5,2 km/h
15.04.2009 15,5 C 62 % 1009,6 hPa 0,0 l/m 4,6 km/h SO 9,17 h 2,2 UV-I 349 W/m 10,4 km/h
16.04.2009 16,1 C 53 % 1004,9 hPa 0,6 l/m 8,4 km/h SO 8,17 h 2,3 UV-I 347 W/m 16,9 km/h
17.04.2009 8,4 C 90 % 1005,5 hPa 3,8 l/m 1,7 km/h N-NO 0,67 h 1,0 UV-I 111 W/m 5,2 km/h
18.04.2009 7,1 C 90 % 1015,1 hPa 0,8 l/m 3,5 km/h N-NO 0,00 h 1,0 UV-I 108 W/m 8,4 km/h
19.04.2009 8,8 C 86 % 1023,4 hPa 0,0 l/m 3,8 km/h SO 6,08 h 1,9 UV-I 293 W/m 8,8 km/h
20.04.2009 12,3 C 65 % 1023,9 hPa 0,0 l/m 3,0 km/h N-NO 11,50 h 2,7 UV-I 439 W/m 8,4 km/h
21.04.2009 10,9 C 68 % 1022,6 hPa 0,0 l/m 1,8 km/h N-NO 12,08 h 2,8 UV-I 451 W/m 5,6 km/h
22.04.2009 8,3 C 73 % 1021,5 hPa 0,0 l/m 7,2 km/h N-NW 2,67 h 1,3 UV-I 202 W/m 16,5 km/h
23.04.2009 8,0 C 86 % 1023,7 hPa 0,2 l/m 4,2 km/h N-NW 3,17 h 1,6 UV-I 234 W/m 8,0 km/h
24.04.2009 11,1 C 65 % 1020,1 hPa 0,0 l/m 7,7 km/h SO 11,75 h 2,4 UV-I 424 W/m 14,5 km/h
25.04.2009 12,5 C 70 % 1012,9 hPa 0,0 l/m 7,2 km/h S 9,25 h 2,2 UV-I 392 W/m 12,5 km/h
26.04.2009 15,0 C 68 % 1006,0 hPa 0,0 l/m 3,6 km/h SO 10,75 h 2,5 UV-I 410 W/m 7,2 km/h
27.04.2009 12,8 C 76 % 1003,0 hPa 0,0 l/m 3,8 km/h S 5,32 h 1,7 UV-I 264 W/m 8,0 km/h
28.04.2009 9,2 C 93 % 1003,9 hPa 10,0 l/m 2,3 km/h N-NW 0,00 h 0,7 UV-I 83 W/m 7,3 km/h
29.04.2009 8,4 C 96 % 1011,0 hPa 4,0 l/m 2,4 km/h N-NW 0,00 h 1,1 UV-I 128 W/m 6,0 km/h
30.04.2009 10,5 C 93 % 1018,3 hPa 14,4 l/m 1,2 km/h N-NW 1,92 h 1,7 UV-I 221 W/m 4,4 km/h
01.05.2009 10,9 C 91 % 1022,7 hPa 2,2 l/m 1,1 km/h N-NW 7,93 h 2,0 UV-I 339 W/m 3,2 km/h
02.05.2009 12,9 C 83 % 1026,3 hPa 0,2 l/m 2,5 km/h W-NW 10,00 h 2,6 UV-I 405 W/m 5,2 km/h
03.05.2009 10,5 C 86 % 1022,2 hPa 0,0 l/m 5,2 km/h W-NW 3,25 h 1,7 UV-I 220 W/m 13,7 km/h
04.05.2009 8,1 C 71 % 1023,8 hPa 0,6 l/m 4,9 km/h NW 3,17 h 2,0 UV-I 256 W/m 12,1 km/h
05.05.2009 8,8 C 92 % 1018,3 hPa 4,0 l/m 7,4 km/h S 0,00 h 1,2 UV-I 93 W/m 17,3 km/h
06.05.2009 9,9 C 97 % 1015,5 hPa 10,6 l/m 9,8 km/h S-SW 0,00 h 0,7 UV-I 56 W/m 23,7 km/h
07.05.2009 12,2 C 81 % 1015,5 hPa 0,0 l/m 4,6 km/h S 6,75 h 2,6 UV-I 335 W/m 9,6 km/h
08.05.2009 11,5 C 89 % 1013,7 hPa 4,2 l/m 4,7 km/h S 3,08 h 1,7 UV-I 207 W/m 11,7 km/h
09.05.2009 11,5 C 84 % 1017,6 hPa 0,4 l/m 1,8 km/h S 6,17 h 2,3 UV-I 303 W/m 4,4 km/h
10.05.2009 13,4 C 70 % 1019,3 hPa 0,0 l/m 1,0 km/h O-NO 11,17 h 3,0 UV-I 442 W/m 4,0 km/h
11.05.2009 11,2 C 86 % 1018,9 hPa 1,8 l/m 3,4 km/h N-NO 0,92 h 1,4 UV-I 174 W/m 7,6 km/h
12.05.2009 11,2 C 65 % 1021,8 hPa 0,0 l/m 3,6 km/h N-NO 8,83 h 2,8 UV-I 401 W/m 11,6 km/h
13.05.2009 12,8 C 66 % 1017,6 hPa 0,0 l/m 4,3 km/h SO 5,42 h 2,4 UV-I 303 W/m 11,2 km/h
14.05.2009 13,6 C 62 % 1009,7 hPa 0,0 l/m 8,8 km/h SO 4,75 h 2,1 UV-I 265 W/m 18,9 km/h
15.05.2009 12,6 C 92 % 1007,3 hPa 14,6 l/m 9,0 km/h SO 2,42 h 2,2 UV-I 205 W/m 21,7 km/h
16.05.2009 11,9 C 78 % 1014,4 hPa 1,4 l/m 4,8 km/h S 8,42 h 2,9 UV-I 406 W/m 11,3 km/h
17.05.2009 13,7 C 83 % 1013,5 hPa 0,0 l/m 5,6 km/h S 2,50 h 2,0 UV-I 213 W/m 13,7 km/h
18.05.2009 14,1 C 67 % 1018,7 hPa 0,0 l/m 4,9 km/h S 8,68 h 3,1 UV-I 394 W/m 9,6 km/h
19.05.2009 14,1 C 75 % 1020,9 hPa 1,0 l/m 0,5 km/h S 7,92 h 2,8 UV-I 361 W/m 3,6 km/h
20.05.2009 15,6 C 75 % 1019,5 hPa 0,6 l/m 1,4 km/h N 10,42 h 3,0 UV-I 397 W/m 2,4 km/h
21.05.2009 16,8 C 73 % 1011,9 hPa 0,2 l/m 6,7 km/h NW 5,83 h 2,5 UV-I 291 W/m 15,7 km/h
22.05.2009 11,9 C 79 % 1015,5 hPa 2,4 l/m 2,3 km/h NW 7,42 h 2,8 UV-I 338 W/m 7,2 km/h
23.05.2009 14,5 C 70 % 1019,4 hPa 0,0 l/m 2,2 km/h O-SO 10,67 h 3,8 UV-I 473 W/m 6,0 km/h
24.05.2009 17,1 C 72 % 1018,1 hPa 0,8 l/m 3,0 km/h NW 12,83 h 3,5 UV-I 468 W/m 5,6 km/h
25.05.2009 20,1 C 68 % 1014,9 hPa 0,0 l/m 4,3 km/h SO 11,75 h 3,6 UV-I 453 W/m 11,3 km/h
26.05.2009 17,5 C 74 % 1010,5 hPa 0,8 l/m 8,8 km/h S 5,92 h 3,0 UV-I 304 W/m 19,3 km/h
27.05.2009 12,4 C 67 % 1022,6 hPa 0,0 l/m 5,1 km/h W-NW 6,08 h 2,3 UV-I 311 W/m 16,9 km/h
28.05.2009 12,1 C 78 % 1025,9 hPa 4,2 l/m 8,5 km/h N-NW 3,33 h 1,8 UV-I 187 W/m 19,3 km/h
29.05.2009 13,5 C 64 % 1030,3 hPa 0,0 l/m 6,8 km/h N-NW 7,73 h 3,3 UV-I 396 W/m 14,1 km/h
30.05.2009 13,2 C 77 % 1025,8 hPa 0,0 l/m 4,2 km/h N-NO 5,92 h 2,5 UV-I 295 W/m 8,4 km/h
31.05.2009 16,1 C 74 % 1023,2 hPa 0,0 l/m 5,0 km/h N-NO 8,75 h 2,8 UV-I 386 W/m 11,6 km/h
01.06.2009 18,6 C 63 % 1019,6 hPa 0,2 l/m 9,5 km/h N-NO 11,67 h 3,3 UV-I 457 W/m 18,1 km/h
02.06.2009 15,8 C 62 % 1017,2 hPa 0,0 l/m 10,2 km/h N-NW 11,42 h 3,5 UV-I 459 W/m 18,1 km/h
03.06.2009 9,9 C 68 % 1015,0 hPa 0,0 l/m 11,8 km/h N-NW 0,83 h 1,5 UV-I 160 W/m 22,9 km/h
04.06.2009 9,3 C 69 % 1012,5 hPa 0,0 l/m 8,7 km/h NW 1,42 h 1,8 UV-I 196 W/m 19,3 km/h
05.06.2009 9,0 C 78 % 1009,9 hPa 0,0 l/m 3,2 km/h W-NW 2,25 h 1,6 UV-I 202 W/m 7,7 km/h
06.06.2009 8,2 C 88 % 1001,3 hPa 9,0 l/m 6,2 km/h NO 1,17 h 1,2 UV-I 132 W/m 13,3 km/h
07.06.2009 11,1 C 88 % 1003,1 hPa 1,8 l/m 6,6 km/h N 1,17 h 1,7 UV-I 153 W/m 12,1 km/h
08.06.2009 13,4 C 72 % 1008,5 hPa 0,2 l/m 5,2 km/h S 5,83 h 2,5 UV-I 327 W/m 10,9 km/h
09.06.2009 14,9 C 81 % 1008,0 hPa 6,0 l/m 10,7 km/h S 4,33 h 2,3 UV-I 247 W/m 19,3 km/h
10.06.2009 14,0 C 85 % 1012,3 hPa 1,2 l/m 3,9 km/h S 2,50 h 2,4 UV-I 240 W/m 7,3 km/h
11.06.2009 10,5 C 94 % 1011,4 hPa 7,4 l/m 6,8 km/h NW 0,50 h 1,0 UV-I 91 W/m 18,1 km/h
12.06.2009 11,4 C 74 % 1018,7 hPa 1,6 l/m 8,9 km/h NW 4,33 h 2,4 UV-I 293 W/m 20,5 km/h
13.06.2009 12,8 C 69 % 1021,1 hPa 0,0 l/m 3,0 km/h NW 12,58 h 3,9 UV-I 494 W/m 6,8 km/h
14.06.2009 14,9 C 87 % 1017,6 hPa 0,6 l/m 1,6 km/h S 4,00 h 2,1 UV-I 228 W/m 3,6 km/h
15.06.2009 13,9 C 93 % 1015,2 hPa 5,4 l/m 1,8 km/h NW 1,00 h 1,4 UV-I 132 W/m 4,8 km/h
16.06.2009 12,6 C 93 % 1021,6 hPa 8,8 l/m 2,4 km/h NW 3,50 h 1,9 UV-I 222 W/m 7,3 km/h
17.06.2009 15,0 C 82 % 1021,0 hPa 0,2 l/m 4,0 km/h S-SO 9,33 h 3,3 UV-I 426 W/m 8,0 km/h
18.06.2009 16,9 C 76 % 1015,7 hPa 1,2 l/m 4,9 km/h S 4,58 h 2,9 UV-I 266 W/m 10,0 km/h
19.06.2009 14,1 C 71 % 1016,8 hPa 0,8 l/m 4,7 km/h NW 4,33 h 2,5 UV-I 276 W/m 10,4 km/h
20.06.2009 12,0 C 80 % 1019,6 hPa 0,4 l/m 4,1 km/h S 4,17 h 2,5 UV-I 295 W/m 9,2 km/h
21.06.2009 10,7 C 90 % 1020,3 hPa 6,8 l/m 0,8 km/h NW 2,00 h 2,3 UV-I 221 W/m 2,8 km/h
22.06.2009 14,0 C 74 % 1025,2 hPa 0,0 l/m 7,3 km/h N-NW 3,75 h 2,4 UV-I 286 W/m 11,7 km/h
23.06.2009 16,9 C 65 % 1024,2 hPa 0,0 l/m 9,7 km/h N-NO 10,08 h 3,1 UV-I 405 W/m 19,3 km/h
24.06.2009 18,8 C 62 % 1018,6 hPa 0,0 l/m 4,6 km/h N-NO 13,00 h 3,9 UV-I 485 W/m 12,0 km/h
25.06.2009 16,8 C 82 % 1012,8 hPa 0,0 l/m 7,0 km/h NO 6,67 h 3,1 UV-I 345 W/m 16,1 km/h
26.06.2009 18,5 C 87 % 1012,1 hPa 6,8 l/m 6,4 km/h O-SO 5,25 h 2,6 UV-I 301 W/m 16,1 km/h
27.06.2009 18,0 C 87 % 1014,6 hPa 0,0 l/m 4,2 km/h NO 2,75 h 1,8 UV-I 211 W/m 10,5 km/h
28.06.2009 19,0 C 84 % 1015,4 hPa 0,0 l/m 1,5 km/h O-NO 4,08 h 2,1 UV-I 255 W/m 4,8 km/h
29.06.2009 21,5 C 78 % 1017,3 hPa 0,0 l/m 1,4 km/h N-NO 5,50 h 2,8 UV-I 324 W/m 3,2 km/h
30.06.2009 21,8 C 72 % 1019,1 hPa 0,0 l/m 3,7 km/h N-NO 6,92 h 2,7 UV-I 326 W/m 6,4 km/h
01.07.2009 22,5 C 73 % 1019,8 hPa 0,0 l/m 1,7 km/h N-NO 9,33 h 2,9 UV-I 372 W/m 4,4 km/h
02.07.2009 23,3 C 71 % 1016,5 hPa 0,0 l/m 1,2 km/h N-NO 10,42 h 3,0 UV-I 389 W/m 2,8 km/h
03.07.2009 22,4 C 76 % 1011,8 hPa 0,0 l/m 2,2 km/h SO 9,00 h 3,4 UV-I 408 W/m 8,4 km/h
04.07.2009 20,7 C 69 % 1011,3 hPa 0,0 l/m 3,8 km/h W-NW 6,58 h 3,1 UV-I 348 W/m 9,3 km/h
05.07.2009 20,0 C 62 % 1009,4 hPa 0,0 l/m 2,0 km/h N-NW 12,83 h 4,0 UV-I 481 W/m 5,2 km/h
06.07.2009 17,1 C 83 % 1006,7 hPa 9,8 l/m 4,0 km/h S 4,75 h 3,6 UV-I 329 W/m 10,1 km/h
07.07.2009 15,0 C 81 % 1005,1 hPa 2,8 l/m 5,1 km/h S 4,75 h 2,5 UV-I 283 W/m 12,5 km/h
08.07.2009 13,3 C 93 % 1006,5 hPa 10,2 l/m 10,3 km/h S 1,17 h 1,9 UV-I 190 W/m 21,7 km/h
09.07.2009 12,5 C 86 % 1011,8 hPa 0,2 l/m 4,9 km/h W 3,42 h 2,4 UV-I 260 W/m 12,4 km/h
10.07.2009 11,3 C 93 % 1011,7 hPa 15,0 l/m 12,4 km/h S 0,17 h 1,0 UV-I 91 W/m 24,5 km/h
11.07.2009 12,8 C 89 % 1013,8 hPa 13,2 l/m 5,1 km/h S 1,42 h 1,9 UV-I 172 W/m 11,7 km/h
12.07.2009 16,1 C 92 % 1010,2 hPa 3,4 l/m 8,9 km/h S 1,08 h 1,7 UV-I 159 W/m 16,9 km/h
13.07.2009 16,2 C 81 % 1011,9 hPa 0,2 l/m 2,6 km/h S 7,58 h 3,1 UV-I 316 W/m 5,6 km/h
14.07.2009 20,3 C 76 % 1011,1 hPa 0,4 l/m 1,3 km/h S 7,17 h 3,2 UV-I 361 W/m 3,6 km/h
15.07.2009 21,1 C 67 % 1016,5 hPa 0,2 l/m 4,2 km/h S 8,58 h 3,1 UV-I 377 W/m 11,2 km/h
16.07.2009 19,2 C 75 % 1019,6 hPa 0,0 l/m 0,8 km/h W-NW 10,25 h 3,0 UV-I 380 W/m 3,2 km/h
17.07.2009 19,1 C 68 % 1008,6 hPa 1,6 l/m 7,4 km/h S 2,83 h 2,3 UV-I 235 W/m 13,3 km/h
18.07.2009 14,8 C 83 % 1009,2 hPa 2,4 l/m 5,1 km/h S 1,42 h 1,7 UV-I 152 W/m 13,3 km/h
19.07.2009 13,1 C 92 % 1013,6 hPa 9,2 l/m 3,6 km/h S 3,50 h 2,4 UV-I 229 W/m 8,1 km/h
20.07.2009 14,5 C 84 % 1015,5 hPa 1,4 l/m 9,8 km/h S 3,75 h 2,0 UV-I 248 W/m 17,7 km/h
21.07.2009 19,1 C 79 % 1011,3 hPa 23,2 l/m 3,1 km/h S 7,83 h 3,1 UV-I 367 W/m 6,4 km/h
22.07.2009 20,1 C 83 % 1006,2 hPa 9,0 l/m 8,2 km/h S 3,58 h 2,5 UV-I 245 W/m 14,5 km/h
23.07.2009 17,5 C 91 % 1004,6 hPa 8,2 l/m 4,9 km/h S 2,17 h 1,8 UV-I 165 W/m 10,0 km/h
24.07.2009 16,2 C 80 % 1012,4 hPa 4,4 l/m 6,9 km/h S 6,52 h 2,8 UV-I 358 W/m 20,1 km/h
25.07.2009 14,6 C 89 % 1019,5 hPa 21,6 l/m 5,4 km/h S 2,67 h 2,2 UV-I 205 W/m 15,3 km/h
26.07.2009 15,7 C 78 % 1019,7 hPa 0,0 l/m 2,9 km/h S 10,08 h 3,1 UV-I 398 W/m 7,2 km/h
27.07.2009 19,5 C 74 % 1011,7 hPa 0,6 l/m 5,4 km/h S 9,92 h 3,7 UV-I 430 W/m 11,6 km/h
28.07.2009 15,5 C 77 % 1020,2 hPa 0,0 l/m 2,5 km/h NW 6,42 h 3,0 UV-I 352 W/m 7,7 km/h
29.07.2009 19,8 C 66 % 1016,2 hPa 0,0 l/m 4,7 km/h S-SO 8,50 h 3,2 UV-I 361 W/m 9,3 km/h
30.07.2009 16,4 C 75 % 1018,2 hPa 4,2 l/m 5,9 km/h S 7,58 h 2,9 UV-I 359 W/m 14,9 km/h
31.07.2009 13,6 C 80 % 1022,5 hPa 0,0 l/m 1,7 km/h S 8,83 h 2,6 UV-I 348 W/m 3,2 km/h
01.08.2009 17,6 C 75 % 1012,9 hPa 0,0 l/m 4,4 km/h SO 7,08 h 2,5 UV-I 279 W/m 8,0 km/h
02.08.2009 17,0 C 88 % 1010,5 hPa 3,4 l/m 4,5 km/h S 1,25 h 1,7 UV-I 137 W/m 14,1 km/h
03.08.2009 15,6 C 81 % 1016,8 hPa 0,0 l/m 2,5 km/h NW 5,25 h 2,8 UV-I 318 W/m 5,6 km/h
04.08.2009 15,0 C 80 % 1021,2 hPa 0,0 l/m 0,3 km/h N-NW 10,75 h 3,0 UV-I 410 W/m 1,6 km/h
05.08.2009 18,2 C 68 % 1021,3 hPa 0,0 l/m 1,4 km/h SO 12,42 h 3,5 UV-I 447 W/m 2,8 km/h
06.08.2009 20,7 C 68 % 1019,7 hPa 0,0 l/m 2,6 km/h SO 12,25 h 3,5 UV-I 441 W/m 6,4 km/h
07.08.2009 21,0 C 70 % 1016,8 hPa 0,0 l/m 2,6 km/h SO 9,75 h 3,1 UV-I 382 W/m 8,4 km/h
08.08.2009 18,7 C 89 % 1017,9 hPa 0,0 l/m 3,8 km/h N-NW 1,67 h 2,2 UV-I 197 W/m 8,8 km/h
09.08.2009 19,2 C 88 % 1016,5 hPa 0,0 l/m 2,5 km/h N-NO 2,50 h 2,0 UV-I 206 W/m 5,2 km/h
10.08.2009 18,9 C 80 % 1014,6 hPa 0,0 l/m 4,1 km/h N-NW 4,08 h 2,3 UV-I 261 W/m 9,2 km/h
11.08.2009 17,3 C 90 % 1016,7 hPa 2,8 l/m 4,8 km/h S 2,50 h 1,5 UV-I 143 W/m 10,1 km/h
12.08.2009 15,8 C 90 % 1016,1 hPa 4,2 l/m 3,7 km/h W 1,17 h 1,4 UV-I 127 W/m 12,5 km/h
13.08.2009 15,4 C 87 % 1015,5 hPa 0,0 l/m 1,7 km/h NW 4,08 h 1,9 UV-I 224 W/m 4,4 km/h
14.08.2009 14,4 C 81 % 1018,2 hPa 0,0 l/m 2,3 km/h NW 10,83 h 3,0 UV-I 407 W/m 5,2 km/h
15.08.2009 18,2 C 67 % 1015,6 hPa 0,0 l/m 3,0 km/h S 12,00 h 3,1 UV-I 424 W/m 6,8 km/h
16.08.2009 20,3 C 73 % 1013,7 hPa 0,0 l/m 4,4 km/h S 11,50 h 3,0 UV-I 413 W/m 9,2 km/h
17.08.2009 18,7 C 78 % 1013,7 hPa 0,0 l/m 7,3 km/h N-NW 8,83 h 2,7 UV-I 366 W/m 13,3 km/h
18.08.2009 15,8 C 77 % 1020,6 hPa 0,0 l/m 2,9 km/h NW 9,83 h 2,7 UV-I 377 W/m 6,8 km/h
19.08.2009 19,7 C 71 % 1020,2 hPa 0,0 l/m 3,3 km/h S-SO 12,00 h 3,1 UV-I 421 W/m 8,0 km/h
20.08.2009 26,4 C 56 % 1015,4 hPa 0,0 l/m 8,1 km/h S-SO 10,08 h 2,8 UV-I 380 W/m 17,7 km/h
21.08.2009 14,8 C 88 % 1019,8 hPa 2,0 l/m 3,1 km/h S-SW 3,17 h 1,6 UV-I 188 W/m 7,6 km/h
22.08.2009 13,9 C 78 % 1023,9 hPa 0,0 l/m 1,1 km/h W-NW 9,67 h 2,7 UV-I 382 W/m 2,4 km/h
23.08.2009 15,0 C 71 % 1020,8 hPa 0,0 l/m 2,3 km/h SO 10,50 h 2,9 UV-I 388 W/m 6,4 km/h
24.08.2009 17,7 C 72 % 1009,9 hPa 0,0 l/m 5,6 km/h SO 11,42 h 3,1 UV-I 419 W/m 10,9 km/h
25.08.2009 18,5 C 86 % 1010,7 hPa 7,2 l/m 2,7 km/h S 1,50 h 2,0 UV-I 152 W/m 6,9 km/h
26.08.2009 15,8 C 81 % 1015,4 hPa 3,0 l/m 1,1 km/h S 9,50 h 3,0 UV-I 385 W/m 4,0 km/h
27.08.2009 18,9 C 80 % 1014,5 hPa 0,0 l/m 3,4 km/h S-SO 6,17 h 2,6 UV-I 315 W/m 5,6 km/h
28.08.2009 16,4 C 70 % 1011,6 hPa 0,0 l/m 6,7 km/h S 3,50 h 2,1 UV-I 237 W/m 13,3 km/h
29.08.2009 12,1 C 83 % 1018,5 hPa 1,4 l/m 2,5 km/h S 3,08 h 1,7 UV-I 208 W/m 7,2 km/h
30.08.2009 11,0 C 83 % 1020,3 hPa 0,0 l/m 4,3 km/h S 1,25 h 1,2 UV-I 131 W/m 7,6 km/h
31.08.2009 15,2 C 76 % 1016,7 hPa 0,0 l/m 2,1 km/h S-SO 11,17 h 3,1 UV-I 391 W/m 4,4 km/h
01.09.2009 19,4 C 74 % 1010,7 hPa 3,6 l/m 7,1 km/h S 7,08 h 2,8 UV-I 299 W/m 12,1 km/h
02.09.2009 14,4 C 82 % 1012,1 hPa 0,0 l/m 3,0 km/h S 4,75 h 1,9 UV-I 237 W/m 6,4 km/h
03.09.2009 14,3 C 75 % 1001,5 hPa 4,0 l/m 13,2 km/h S 1,67 h 1,9 UV-I 189 W/m 24,1 km/h
04.09.2009 12,2 C 82 % 1005,8 hPa 1,8 l/m 13,0 km/h S 2,83 h 1,5 UV-I 174 W/m 22,9 km/h
05.09.2009 12,3 C 88 % 1018,0 hPa 14,0 l/m 7,4 km/h W-NW 2,25 h 1,5 UV-I 180 W/m 17,7 km/h
06.09.2009 11,7 C 90 % 1023,4 hPa 0,2 l/m 2,6 km/h S 0,17 h 1,1 UV-I 97 W/m 6,9 km/h
07.09.2009 13,9 C 83 % 1022,3 hPa 0,0 l/m 1,5 km/h S 8,33 h 2,4 UV-I 348 W/m 4,0 km/h
08.09.2009 17,8 C 67 % 1022,5 hPa 0,0 l/m 6,2 km/h S 10,00 h 2,5 UV-I 365 W/m 8,9 km/h
09.09.2009 17,6 C 79 % 1024,3 hPa 0,0 l/m 6,4 km/h S 6,92 h 2,1 UV-I 288 W/m 12,4 km/h
10.09.2009 14,4 C 83 % 1029,8 hPa 0,0 l/m 6,8 km/h N 0,25 h 1,3 UV-I 125 W/m 13,7 km/h
11.09.2009 11,9 C 85 % 1030,5 hPa 0,0 l/m 2,7 km/h N-NO 5,17 h 1,9 UV-I 265 W/m 4,8 km/h
12.09.2009 12,4 C 85 % 1025,1 hPa 0,0 l/m 2,0 km/h N-NW 3,08 h 1,9 UV-I 230 W/m 4,4 km/h
13.09.2009 10,9 C 94 % 1018,7 hPa 3,4 l/m 8,6 km/h N-NW 0,58 h 1,1 UV-I 102 W/m 21,0 km/h
14.09.2009 11,5 C 94 % 1019,1 hPa 4,6 l/m 6,9 km/h N-NO 0,33 h 1,1 UV-I 113 W/m 14,9 km/h
15.09.2009 13,2 C 96 % 1018,1 hPa 26,4 l/m 3,9 km/h NO 0,00 h 0,8 UV-I 70 W/m 9,3 km/h
16.09.2009 14,8 C 91 % 1016,7 hPa 0,0 l/m 9,5 km/h N-NO 1,92 h 1,4 UV-I 157 W/m 17,3 km/h
17.09.2009 11,2 C 89 % 1019,4 hPa 0,0 l/m 3,2 km/h N-NO 6,08 h 2,2 UV-I 286 W/m 6,9 km/h
18.09.2009 13,6 C 84 % 1018,9 hPa 0,0 l/m 3,2 km/h SO 9,00 h 2,3 UV-I 320 W/m 7,6 km/h
19.09.2009 15,6 C 84 % 1015,9 hPa 0,0 l/m 2,5 km/h SO 8,92 h 2,1 UV-I 316 W/m 6,0 km/h
20.09.2009 16,3 C 89 % 1019,2 hPa 0,0 l/m 3,1 km/h NW 5,42 h 1,6 UV-I 237 W/m 8,1 km/h
21.09.2009 13,3 C 88 % 1024,5 hPa 0,0 l/m 2,2 km/h N-NW 6,75 h 1,8 UV-I 294 W/m 5,6 km/h
22.09.2009 14,6 C 75 % 1024,3 hPa 0,2 l/m 4,0 km/h S 7,25 h 1,9 UV-I 268 W/m 8,5 km/h
23.09.2009 15,0 C 89 % 1023,9 hPa 0,2 l/m 6,0 km/h S 0,25 h 1,5 UV-I 118 W/m 15,3 km/h
24.09.2009 12,3 C 87 % 1023,1 hPa 0,2 l/m 2,5 km/h W-NW 3,33 h 1,6 UV-I 189 W/m 5,2 km/h
25.09.2009 10,0 C 88 % 1026,3 hPa 0,0 l/m 0,8 km/h NW 3,50 h 1,4 UV-I 195 W/m 3,2 km/h
26.09.2009 10,7 C 87 % 1027,1 hPa 0,0 l/m 1,2 km/h SO 6,92 h 1,8 UV-I 279 W/m 2,8 km/h
27.09.2009 11,0 C 85 % 1025,6 hPa 0,2 l/m 2,4 km/h W-NW 8,17 h 1,8 UV-I 296 W/m 6,0 km/h
28.09.2009 12,7 C 88 % 1021,8 hPa 0,0 l/m 6,6 km/h S 0,42 h 1,1 UV-I 109 W/m 16,5 km/h
29.09.2009 13,0 C 96 % 1017,5 hPa 5,4 l/m 5,4 km/h NW 0,08 h 1,0 UV-I 55 W/m 15,7 km/h
30.09.2009 12,6 C 94 % 1015,6 hPa 3,4 l/m 6,1 km/h S 0,83 h 1,2 UV-I 133 W/m 13,6 km/h
01.10.2009 9,1 C 95 % 1013,2 hPa 3,6 l/m 4,1 km/h NW 0,08 h 1,0 UV-I 79 W/m 13,3 km/h
02.10.2009 7,9 C 96 % 1015,9 hPa 5,6 l/m 1,9 km/h W-NW 0,00 h 0,6 UV-I 50 W/m 4,8 km/h
03.10.2009 10,9 C 83 % 1008,5 hPa 0,0 l/m 15,9 km/h S 0,00 h 0,8 UV-I 75 W/m 31,0 km/h
04.10.2009 9,9 C 80 % 1010,1 hPa 3,2 l/m 7,2 km/h W 3,92 h 1,5 UV-I 209 W/m 18,1 km/h
05.10.2009 8,4 C 91 % 1014,6 hPa 2,0 l/m 4,3 km/h SO 2,17 h 1,2 UV-I 122 W/m 10,0 km/h
06.10.2009 13,5 C 98 % 1010,5 hPa 15,6 l/m 5,2 km/h S 0,25 h 0,9 UV-I 84 W/m 10,9 km/h
07.10.2009 17,2 C 92 % 1008,7 hPa 3,0 l/m 5,3 km/h S 0,83 h 1,0 UV-I 116 W/m 10,5 km/h
08.10.2009 9,6 C 94 % 1013,9 hPa 13,2 l/m 3,7 km/h S 0,73 h 1,0 UV-I 108 W/m 9,3 km/h
09.10.2009 6,6 C 85 % 1021,3 hPa 0,2 l/m 2,3 km/h SO 6,17 h 1,5 UV-I 249 W/m 6,0 km/h
10.10.2009 10,5 C 97 % 1011,8 hPa 20,8 l/m 6,0 km/h S-SO 0,00 h 0,7 UV-I 58 W/m 14,5 km/h
11.10.2009 9,8 C 96 % 1008,7 hPa 7,2 l/m 7,6 km/h NW 0,08 h 0,9 UV-I 73 W/m 20,1 km/h
12.10.2009 6,8 C 93 % 1018,1 hPa 4,6 l/m 9,7 km/h N-NW 1,58 h 1,0 UV-I 130 W/m 20,1 km/h
13.10.2009 4,2 C 94 % 1026,4 hPa 2,0 l/m 4,0 km/h N-NW 2,17 h 1,3 UV-I 155 W/m 8,1 km/h
14.10.2009 0,4 C 88 % 1029,9 hPa 0,2 l/m 1,4 km/h N-NW 3,00 h 1,2 UV-I 181 W/m 4,0 km/h
15.10.2009 3,6 C 78 % 1026,6 hPa 0,0 l/m 5,8 km/h N-NW 5,17 h 1,2 UV-I 222 W/m 10,9 km/h
16.10.2009 5,6 C 95 % 1017,2 hPa 14,2 l/m 7,9 km/h N-NW 0,52 h 1,0 UV-I 91 W/m 16,5 km/h
17.10.2009 5,0 C 93 % 1021,4 hPa 2,0 l/m 9,3 km/h N-NW 0,00 h 0,8 UV-I 69 W/m 19,3 km/h
18.10.2009 2,0 C 94 % 1022,5 hPa 0,0 l/m 1,5 km/h NW 3,92 h 1,2 UV-I 185 W/m 4,8 km/h
19.10.2009 3,4 C 89 % 1018,7 hPa 0,2 l/m 0,6 km/h S 2,33 h 0,9 UV-I 136 W/m 3,2 km/h
20.10.2009 4,3 C 79 % 1011,2 hPa 0,0 l/m 12,3 km/h SO 6,58 h 1,2 UV-I 230 W/m 23,4 km/h
21.10.2009 4,5 C 84 % 1007,3 hPa 0,0 l/m 8,9 km/h SO 2,17 h 0,9 UV-I 139 W/m 17,7 km/h
22.10.2009 5,6 C 89 % 1004,9 hPa 0,0 l/m 2,5 km/h SO 0,42 h 0,8 UV-I 103 W/m 5,6 km/h
23.10.2009 7,1 C 92 % 1012,9 hPa 0,0 l/m 0,7 km/h N-NW 0,58 h 0,8 UV-I 116 W/m 1,6 km/h
24.10.2009 8,9 C 91 % 1014,5 hPa 0,4 l/m 14,0 km/h S-SO 0,42 h 0,9 UV-I 104 W/m 25,3 km/h
25.10.2009 9,6 C 90 % 1014,2 hPa 1,6 l/m 6,0 km/h S 2,00 h 0,9 UV-I 140 W/m 11,7 km/h
26.10.2009 9,9 C 93 % 1015,8 hPa 5,0 l/m 8,6 km/h S 0,17 h 0,6 UV-I 65 W/m 18,1 km/h
27.10.2009 9,0 C 97 % 1022,4 hPa 3,8 l/m 2,3 km/h NW 0,00 h 0,6 UV-I 42 W/m 8,5 km/h
28.10.2009 7,6 C 93 % 1019,6 hPa 0,0 l/m 1,4 km/h S 1,08 h 0,9 UV-I 125 W/m 3,6 km/h
29.10.2009 9,3 C 98 % 1024,1 hPa 0,4 l/m 1,2 km/h S 0,00 h 0,5 UV-I 53 W/m 2,8 km/h
30.10.2009 7,3 C 94 % 1027,9 hPa 0,0 l/m 4,4 km/h SO 2,67 h 0,8 UV-I 130 W/m 11,3 km/h
31.10.2009 4,8 C 90 % 1025,1 hPa 0,0 l/m 8,1 km/h S-SO 3,25 h 0,8 UV-I 139 W/m 12,5 km/h
01.11.2009 6,6 C 93 % 1010,3 hPa 13,4 l/m 17,4 km/h S-SO 1,67 h 0,7 UV-I 118 W/m 24,1 km/h
02.11.2009 8,8 C 95 % 1001,0 hPa 14,6 l/m 1,5 km/h S 0,00 h 0,6 UV-I 60 W/m 4,8 km/h
03.11.2009 6,5 C 89 % 994,4 hPa 2,0 l/m 13,9 km/h S-SO 1,83 h 0,7 UV-I 120 W/m 20,9 km/h
04.11.2009 6,3 C 96 % 988,0 hPa 15,8 l/m 6,5 km/h S-SO 0,08 h 0,6 UV-I 41 W/m 13,3 km/h
05.11.2009 6,3 C 91 % 996,3 hPa 4,4 l/m 9,4 km/h S 0,00 h 0,6 UV-I 67 W/m 17,7 km/h
06.11.2009 6,8 C 93 % 1005,5 hPa 1,6 l/m 6,4 km/h S-SO 0,42 h 0,7 UV-I 79 W/m 11,7 km/h
07.11.2009 5,6 C 92 % 999,2 hPa 2,6 l/m 11,8 km/h S-SO 0,00 h 0,6 UV-I 44 W/m 20,1 km/h
08.11.2009 5,9 C 93 % 1007,9 hPa 0,0 l/m 2,6 km/h N-NO 0,08 h 0,7 UV-I 87 W/m 5,6 km/h
09.11.2009 4,4 C 98 % 1010,5 hPa 5,2 l/m 5,6 km/h N-NO 0,00 h 0,0 UV-I 19 W/m 10,9 km/h
10.11.2009 4,3 C 97 % 1008,2 hPa 22,0 l/m 3,3 km/h S-SW 0,00 h 0,0 UV-I 28 W/m 11,7 km/h
11.11.2009 5,6 C 93 % 1008,7 hPa 4,0 l/m 5,3 km/h S-SW 0,00 h 0,6 UV-I 54 W/m 12,9 km/h
12.11.2009 3,2 C 96 % 1009,1 hPa 1,0 l/m 2,4 km/h S 0,08 h 0,6 UV-I 48 W/m 5,2 km/h
13.11.2009 9,8 C 93 % 1010,3 hPa 1,2 l/m 13,6 km/h S-SO 0,83 h 0,6 UV-I 60 W/m 20,9 km/h
14.11.2009 9,4 C 90 % 1007,3 hPa 0,2 l/m 10,0 km/h S-SO 0,00 h 0,0 UV-I 29 W/m 15,7 km/h
15.11.2009 8,3 C 93 % 1011,6 hPa 6,2 l/m 2,9 km/h S 0,75 h 0,6 UV-I 67 W/m 6,8 km/h
16.11.2009 9,5 C 93 % 1008,6 hPa 0,8 l/m 8,6 km/h S 0,00 h 0,5 UV-I 33 W/m 16,1 km/h
17.11.2009 9,0 C 90 % 1011,7 hPa 1,0 l/m 6,9 km/h S-SW 0,08 h 0,5 UV-I 55 W/m 15,7 km/h
18.11.2009 9,3 C 83 % 1015,7 hPa 0,2 l/m 19,3 km/h S 1,33 h 0,6 UV-I 95 W/m 37,4 km/h
19.11.2009 7,3 C 85 % 1020,1 hPa 0,0 l/m 6,9 km/h S 1,25 h 0,7 UV-I 89 W/m 10,5 km/h
20.11.2009 12,8 C 73 % 1020,4 hPa 0,0 l/m 13,6 km/h S 3,83 h 0,6 UV-I 127 W/m 23,7 km/h
21.11.2009 11,4 C 85 % 1020,4 hPa 0,8 l/m 10,6 km/h S 1,33 h 0,6 UV-I 81 W/m 18,1 km/h
22.11.2009 8,7 C 84 % 1009,0 hPa 2,2 l/m 11,2 km/h S 0,67 h 0,5 UV-I 56 W/m 20,9 km/h
23.11.2009 8,7 C 88 % 999,7 hPa 23,0 l/m 22,9 km/h S 0,00 h 0,0 UV-I 32 W/m 37,0 km/h
24.11.2009 9,5 C 89 % 1009,6 hPa 5,4 l/m 12,5 km/h S-SW 0,08 h 0,5 UV-I 48 W/m 27,8 km/h
25.11.2009 9,7 C 83 % 1005,3 hPa 1,0 l/m 13,8 km/h S 2,08 h 0,6 UV-I 100 W/m 21,4 km/h
26.11.2009 7,5 C 79 % 1006,5 hPa 0,0 l/m 21,5 km/h S 2,92 h 0,6 UV-I 112 W/m 35,4 km/h
27.11.2009 5,9 C 86 % 1002,7 hPa 7,6 l/m 12,5 km/h S 0,08 h 0,0 UV-I 35 W/m 20,9 km/h
28.11.2009 6,5 C 89 % 1000,8 hPa 1,4 l/m 15,6 km/h S 0,33 h 0,0 UV-I 42 W/m 27,4 km/h
29.11.2009 8,0 C 82 % 997,3 hPa 1,6 l/m 15,1 km/h S 0,50 h 0,5 UV-I 67 W/m 24,1 km/h
30.11.2009 4,2 C 92 % 998,8 hPa 0,0 l/m 0,8 km/h S 0,00 h 0,0 UV-I 50 W/m 3,2 km/h
01.12.2009 0,6 C 93 % 1010,8 hPa 0,0 l/m 0,6 km/h N-NW 0,92 h 0,5 UV-I 63 W/m 2,0 km/h
02.12.2009 3,2 C 90 % 1009,6 hPa 0,4 l/m 10,4 km/h S-SO 2,58 h 0,6 UV-I 99 W/m 19,3 km/h
03.12.2009 6,3 C 89 % 1002,6 hPa 1,2 l/m 19,4 km/h S-SO 0,25 h 0,5 UV-I 64 W/m 28,6 km/h
04.12.2009 1,9 C 89 % 1009,6 hPa 1,2 l/m 4,1 km/h S 1,42 h 0,0 UV-I 62 W/m 9,2 km/h
05.12.2009 2,6 C 93 % 1009,3 hPa 4,0 l/m 14,7 km/h S 0,00 h 0,0 UV-I 25 W/m 23,7 km/h
06.12.2009 8,1 C 95 % 1006,4 hPa 10,8 l/m 9,5 km/h S-SO 0,00 h 0,5 UV-I 51 W/m 19,3 km/h
07.12.2009 4,1 C 93 % 1009,9 hPa 0,0 l/m 7,9 km/h S 2,33 h 0,5 UV-I 90 W/m 14,5 km/h
08.12.2009 5,3 C 96 % 1012,7 hPa 2,2 l/m 7,6 km/h S-SO 0,00 h 0,0 UV-I 26 W/m 18,5 km/h
09.12.2009 4,7 C 95 % 1023,9 hPa 0,0 l/m 6,8 km/h S 1,92 h 0,5 UV-I 85 W/m 11,3 km/h
10.12.2009 6,5 C 98 % 1018,3 hPa 14,8 l/m 14,0 km/h S-SO 0,00 h 0,0 UV-I 18 W/m 30,2 km/h
11.12.2009 2,5 C 96 % 1026,5 hPa 2,8 l/m 5,5 km/h N-NO 0,00 h 0,0 UV-I 29 W/m 10,9 km/h
12.12.2009 0,9 C 96 % 1026,4 hPa 0,4 l/m 6,5 km/h N-NO 0,00 h 0,0 UV-I 30 W/m 14,1 km/h
13.12.2009 -1,5 C 90 % 1024,4 hPa 0,6 l/m 3,1 km/h N-NO 1,00 h 0,5 UV-I 59 W/m 10,9 km/h
14.12.2009 -2,2 C 85 % 1022,8 hPa 0,0 l/m 1,5 km/h O-NO 2,42 h 0,5 UV-I 100 W/m 8,1 km/h
15.12.2009 -2,8 C 88 % 1019,5 hPa 0,0 l/m 1,3 km/h N-NO 0,00 h 0,0 UV-I 55 W/m 4,4 km/h
16.12.2009 -4,7 C 88 % 1011,1 hPa 0,0 l/m 0,9 km/h S 1,92 h 0,5 UV-I 91 W/m 2,0 km/h
17.12.2009 -5,9 C 89 % 1010,3 hPa 0,0 l/m 3,3 km/h SO 1,17 h 0,5 UV-I 77 W/m 6,8 km/h
18.12.2009 -9,3 C 88 % 1009,0 hPa 0,0 l/m 3,7 km/h N-NO 0,00 h 0,0 UV-I 25 W/m 11,3 km/h
19.12.2009 -15,3 C 85 % 1009,3 hPa 0,0 l/m 1,3 km/h N-NO 0,42 h 0,0 UV-I 61 W/m 4,0 km/h
20.12.2009 -8,2 C 93 % 999,6 hPa 0,0 l/m 9,5 km/h S 0,00 h 0,0 UV-I 31 W/m 20,1 km/h
21.12.2009 -3,4 C 92 % 998,2 hPa 0,0 l/m 15,5 km/h S-SO 1,67 h 0,6 UV-I 83 W/m 24,1 km/h
22.12.2009 1,2 C 95 % 989,0 hPa 8,0 l/m 9,8 km/h S-SO 0,00 h 0,0 UV-I 26 W/m 20,1 km/h
23.12.2009 0,1 C 89 % 998,3 hPa 0,8 l/m 11,9 km/h S-SO 2,83 h 0,5 UV-I 95 W/m 19,8 km/h
24.12.2009 0,5 C 93 % 991,6 hPa 1,0 l/m 4,0 km/h S-SO 1,00 h 0,5 UV-I 63 W/m 11,7 km/h
25.12.2009 2,2 C 95 % 993,0 hPa 13,0 l/m 18,1 km/h S 0,00 h 0,0 UV-I 19 W/m 36,6 km/h
26.12.2009 1,3 C 89 % 1006,0 hPa 0,0 l/m 10,0 km/h S 2,17 h 0,5 UV-I 91 W/m 16,0 km/h
27.12.2009 0,6 C 92 % 1001,3 hPa 0,6 l/m 10,1 km/h S 0,42 h 0,5 UV-I 59 W/m 17,3 km/h
28.12.2009 0,1 C 95 % 1005,6 hPa 4,8 l/m 3,8 km/h W 0,00 h 0,0 UV-I 18 W/m 8,9 km/h
29.12.2009 -0,8 C 96 % 999,9 hPa 0,0 l/m 6,8 km/h O-SO 1,17 h 0,5 UV-I 76 W/m 16,5 km/h
30.12.2009 0,7 C 98 % 993,1 hPa 16,4 l/m 2,1 km/h O-SO 0,00 h 0,0 UV-I 31 W/m 4,8 km/h
31.12.2009 -1,9 C 96 % 994,6 hPa 0,4 l/m 0,0 km/h N 0,00 h 0,0 UV-I 29 W/m 0,0 km/h
Min-Datum 19.12.09 05.07.09 23.01.09 209 Tage 01.01.09 - - - - 01.01.09
Min-Zeit 23:45 16:30 15:15 - 00:20 - - - - 00:20
Minimum -18,2 C 31 % 966,9 hPa - 0,0 km/h - - - - 0,0 km/h
Max-Datum 20.08.09 08.01.09 17.03.09 15.09.09 19.01.09 - 24.06.09 18.06.09 21.06.09 19.01.09
Max-Zeit 16:05 10:40 23:05 09:15 13:45 - 20:10 12:50 13:20 13:30
Maximum 33,4 C 100 % 1035,3 hPa 26,4 l/m 44,0 km/h
S-SO
- 12,92 h 8,0 UV-I 1209 W/m 69,2 km/h
S-SO
Durchschnitt 8,7 C 85 % 1014,3 hPa #959,8 l/m 5,9 km/h S #1346:19 h 1,6 UV-I 191 W/m 12,4 km/h

Durchschnitt Minimum Temp.4,7 C
Durchschnitt Maximum Temp.12,9 C